Home > Weather > Viernheim > Past weeks

Flag for Germany Weather for the Past 2 Weeks in Viernheim, Hesse, Germany

Now
57 °F

Partly sunny.


Feels Like: 55 °F
Forecast: 38 / 59 °F
Wind: 9 mph from North

Location: Mannheim City

Current Time: May 3, 2016 at 4:47:37 PM

Latest Report: May 3, 2016 at 3:50 PM


Visibility: N/A

Pressure: 30.18 "Hg

Humidity: 59%

Dew Point: 43 °F

Location of ViernheimLocation

Historic Weather in Viernheim — Graph

°F

Viernheim Temperature Yesterday

Maximum temperature yesterday: 68 °F (at 2:50 PM)
Minimum temperature yesterday: 46 °F (at 5:50 AM)
Average temperature yesterday: 62 °F

High & Low Weather Summary for the Past Weeks

 TemperatureHumidityPressure
High72 °F (Apr 21, 4:50 PM)100% (Apr 19, 6:50 AM)30.42 "Hg (Apr 19, 6:50 AM)
Low36 °F (Apr 25, 6:50 AM)23% (Apr 21, 4:50 PM)29.59 "Hg (Apr 26, 5:50 AM)
Average52 °F58%30.04 "Hg
* Reported Apr 18 3:20 PM — May 3 3:20 PM, Viernheim, Weather by CustomWeather, © 2016

Note: Actual official high and low records may vary slightly from our data, if they occured in-between our weather recording intervals... More about our weather records

Advertising

Viernheim Weather History for the Previous 24 Hours

Scroll right to see more
 ConditionsComfort  
Time TempWeatherWind HumidityBarometerVisibility
3:20 PM
Tue, May 3
57 °FBroken clouds.7 mph67%30.18 "HgN/A
2:50 PM55 °FScattered clouds.9 mph67%30.18 "HgN/A
2:20 PM55 °FPartly sunny.8 mph72%30.15 "HgN/A
1:50 PM54 °FBroken clouds.10 mph82%30.15 "HgN/A
1:20 PM52 °FLight rain. Scattered clouds.9 mph88%30.15 "HgN/A
12:50 PM52 °FLight rain. Partly sunny.8 mph88%30.15 "Hg6 mi
12:20 PM50 °FLight rain. Partly sunny.9 mph94%30.18 "Hg5 mi
11:50 AM54 °FLight rain. Broken clouds.13 mph88%30.15 "Hg6 mi
11:20 AM55 °FLight rain. Partly sunny.12 mph77%30.15 "HgN/A
10:50 AM55 °FLight rain. Partly sunny.14 mph72%30.12 "HgN/A
10:20 AM59 °FPartly sunny.10 mph55%30.12 "HgN/A
9:50 AM59 °FPassing clouds.3 mph63%30.09 "HgN/A
9:20 AM55 °FPassing clouds.5 mph67%30.12 "HgN/A
8:50 AM55 °FPartly sunny.2 mph67%30.09 "HgN/A
8:20 AM52 °FSunny.3 mph77%30.09 "Hg10 mi
7:50 AM52 °FSunny.2 mph77%30.09 "Hg10 mi
7:20 AM48 °FSunny.3 mph82%30.09 "Hg10 mi
6:50 AM48 °FClear.3 mph82%30.09 "Hg10 mi
6:20 AM48 °FClear.3 mph82%30.09 "Hg10 mi
5:50 AM48 °FPassing clouds.3 mph87%30.09 "HgN/A
5:20 AM46 °FPassing clouds.No wind93%30.09 "HgN/A
8:50 PM
Mon, May 2
63 °FSunny.5 mph42%30.09 "Hg10 mi
8:20 PM64 °FSunny.5 mph40%30.09 "Hg10 mi
7:50 PM66 °FSunny.6 mph37%30.09 "Hg10 mi
7:20 PM68 °FSunny.9 mph33%30.09 "Hg10 mi
6:50 PM68 °FPassing clouds.9 mph35%30.09 "HgN/A
6:20 PM68 °FSunny.3 mph30%30.09 "Hg10 mi
5:50 PM68 °FSunny.6 mph33%30.09 "Hg10 mi
5:20 PM68 °FSunny.3 mph30%30.12 "Hg10 mi
4:50 PM68 °FPassing clouds.6 mph33%30.12 "HgN/A
4:20 PM68 °FPassing clouds.7 mph33%30.12 "HgN/A
Weather by CustomWeather, © 2016

See weather overviewHow to use our weather pages